When you browse on this site, cookies collect data to enhance your experience and personalize the content and advertising you see.
Visit our Privacy Policy to learn more. By continuing to use the site, you agree to this use of cookies and data.
  • în România
  • Lista ţărilor
  • Pe 7 zile
  • Temperatura apei
  • Hartă satelitară
  • Meteo pe hartă
  • Widget-uri
  • user-avatar
    Intrare

    Meteo pe oră la Szeged

    Astăzi, 16 Ianuarie, Miercuri

    Timp Temperatura Precipitaţii Vânt Presiune Umiditate
    00:00 -1°C° 0.1 mm 6 m/s 754 mmHg 68%
    01:00 -1°C° 0.1 mm 6 m/s 754 mmHg 68%
    02:00 -1°C° 0.2 mm 7 m/s 753 mmHg 69%
    03:00 -1°C° 0.2 mm 7 m/s 753 mmHg 70%
    04:00 0°C° 0.2 mm 7 m/s 753 mmHg 71%
    05:00 0°C° 0.3 mm 7 m/s 753 mmHg 73%
    06:00 -1°C° 0.3 mm 6 m/s 754 mmHg 75%
    07:00 -1°C° 0.3 mm 6 m/s 754 mmHg 77%
    08:00 +1°C° 0.5 mm 6 m/s 754 mmHg 78%
    09:00 +1°C° 0.5 mm 6 m/s 755 mmHg 78%
    10:00 +1°C° 0.5 mm 6 m/s 755 mmHg 79%
    11:00 +2°C° 0.1 mm 6 m/s 755 mmHg 77%
    12:00 +3°C° 0.1 mm 5 m/s 755 mmHg 76%
    13:00 +3°C° 0.1 mm 5 m/s 755 mmHg 74%
    14:00 +4°C° 0 mm 4 m/s 755 mmHg 77%
    15:00 +3°C° 0 mm 4 m/s 755 mmHg 80%
    16:00 +2°C° 0 mm 3 m/s 755 mmHg 83%
    17:00 +2°C° 0 mm 3 m/s 755 mmHg 84%
    18:00 +1°C° 0 mm 3 m/s 755 mmHg 84%
    19:00 +1°C° 0 mm 3 m/s 755 mmHg 84%
    20:00 +1°C° 0 mm 3 m/s 755 mmHg 85%
    21:00 0°C° 0 mm 4 m/s 755 mmHg 86%
    22:00 0°C° 0 mm 4 m/s 755 mmHg 87%
    23:00 0°C° 0 mm 4 m/s 755 mmHg 87%

    Mâine, 17 Ianuarie, Joi

    Timp Temperatura Precipitaţii Vânt Presiune Umiditate
    00:00 0°C° 0 mm 4 m/s 755 mmHg 87%
    01:00 0°C° 0 mm 5 m/s 755 mmHg 87%
    02:00 0°C° 0 mm 5 m/s 754 mmHg 85%
    03:00 0°C° 0 mm 5 m/s 754 mmHg 83%
    04:00 0°C° 0 mm 5 m/s 754 mmHg 81%
    05:00 0°C° 0 mm 5 m/s 754 mmHg 80%
    06:00 0°C° 0 mm 5 m/s 754 mmHg 79%
    07:00 0°C° 0 mm 5 m/s 754 mmHg 78%
    08:00 +1°C° 0 mm 6 m/s 754 mmHg 75%
    09:00 +2°C° 0 mm 6 m/s 754 mmHg 72%
    10:00 +3°C° 0 mm 6 m/s 755 mmHg 69%
    11:00 +4°C° 0 mm 6 m/s 754 mmHg 67%
    12:00 +5°C° 0 mm 6 m/s 754 mmHg 66%
    13:00 +7°C° 0 mm 6 m/s 753 mmHg 64%
    14:00 +6°C° 0 mm 5 m/s 753 mmHg 67%
    15:00 +5°C° 0 mm 5 m/s 753 mmHg 71%
    16:00 +4°C° 0 mm 4 m/s 753 mmHg 74%
    17:00 +4°C° 0 mm 4 m/s 752 mmHg 75%
    18:00 +4°C° 0 mm 4 m/s 752 mmHg 77%
    19:00 +2°C° 0 mm 5 m/s 752 mmHg 79%
    20:00 +2°C° 0 mm 5 m/s 752 mmHg 79%
    21:00 +3°C° 0 mm 4 m/s 752 mmHg 80%
    22:00 +3°C° 0 mm 4 m/s 752 mmHg 80%
    23:00 +3°C° 0.1 mm 4 m/s 752 mmHg 82%

    Poimâine, 18 Ianuarie, Vineri

    Timp Temperatura Precipitaţii Vânt Presiune Umiditate
    00:00 +2°C° 0.1 mm 3 m/s 752 mmHg 84%
    01:00 +2°C° 0.1 mm 3 m/s 752 mmHg 85%
    02:00 +2°C° 0.2 mm 3 m/s 752 mmHg 88%
    03:00 +3°C° 0.2 mm 2 m/s 752 mmHg 90%
    04:00 +3°C° 0.2 mm 2 m/s 752 mmHg 92%
    05:00 +2°C° 0.3 mm 3 m/s 753 mmHg 89%
    06:00 +2°C° 0.3 mm 3 m/s 753 mmHg 87%
    07:00 +2°C° 0.3 mm 3 m/s 754 mmHg 84%
    08:00 +3°C° 0 mm 3 m/s 754 mmHg 80%
    09:00 +3°C° 0 mm 3 m/s 755 mmHg 76%
    10:00 +3°C° 0 mm 4 m/s 756 mmHg 72%
    11:00 +4°C° 0 mm 4 m/s 756 mmHg 68%
    12:00 +4°C° 0 mm 4 m/s 756 mmHg 65%
    13:00 +4°C° 0 mm 4 m/s 756 mmHg 61%
    14:00 +4°C° 0 mm 3 m/s 757 mmHg 62%
    15:00 +3°C° 0 mm 3 m/s 757 mmHg 62%
    16:00 +3°C° 0 mm 3 m/s 757 mmHg 62%
    17:00 +2°C° 0 mm 3 m/s 758 mmHg 64%
    18:00 +1°C° 0 mm 3 m/s 758 mmHg 67%
    19:00 +1°C° 0 mm 3 m/s 758 mmHg 69%
    20:00 +1°C° 0 mm 2 m/s 759 mmHg 70%
    21:00 +1°C° 0 mm 2 m/s 759 mmHg 70%
    22:00 +1°C° 0 mm 2 m/s 759 mmHg 71%
    23:00 -1°C° 0 mm 2 m/s 759 mmHg 72%

    19 Ianuarie, Sâmbătă

    Timp Temperatura Precipitaţii Vânt Presiune Umiditate
    00:00 +1°C° 0 mm 1 m/s 759 mmHg 73%
    01:00 +1°C° 0 mm 1 m/s 759 mmHg 75%
    02:00 +1°C° 0 mm 1 m/s 758 mmHg 74%
    03:00 +1°C° 0 mm 1 m/s 758 mmHg 74%
    04:00 0°C° 0 mm 1 m/s 758 mmHg 73%
    05:00 +1°C° 0 mm 1 m/s 758 mmHg 72%
    06:00 +1°C° 0 mm 1 m/s 758 mmHg 71%
    07:00 +1°C° 0 mm 1 m/s 758 mmHg 70%
    08:00 -1°C° 0 mm 2 m/s 758 mmHg 69%
    09:00 +1°C° 0 mm 2 m/s 758 mmHg 67%
    10:00 +1°C° 0 mm 2 m/s 758 mmHg 65%
    11:00 0°C° 0.1 mm 3 m/s 757 mmHg 66%
    12:00 +1°C° 0.1 mm 3 m/s 757 mmHg 66%
    13:00 +1°C° 0.1 mm 3 m/s 756 mmHg 67%
    14:00 0°C° 0.3 mm 3 m/s 756 mmHg 70%
    15:00 0°C° 0.3 mm 3 m/s 755 mmHg 73%
    16:00 -1°C° 0.3 mm 4 m/s 755 mmHg 77%
    17:00 -2°C° 1 mm 4 m/s 755 mmHg 83%
    18:00 -2°C° 1 mm 4 m/s 755 mmHg 89%
    19:00 -2°C° 1 mm 4 m/s 755 mmHg 95%
    20:00 -1°C° 0.7 mm 3 m/s 755 mmHg 95%
    21:00 -1°C° 0.7 mm 3 m/s 755 mmHg 96%
    22:00 -1°C° 0.7 mm 3 m/s 755 mmHg 96%
    23:00 -1°C° 0.4 mm 3 m/s 755 mmHg 96%

    20 Ianuarie, Duminică

    Timp Temperatura Precipitaţii Vânt Presiune Umiditate
    00:00 -2°C° 0.4 mm 3 m/s 755 mmHg 96%
    01:00 -2°C° 0.4 mm 2 m/s 755 mmHg 96%
    02:00 -2°C° 0.4 mm 3 m/s 755 mmHg 96%
    03:00 -2°C° 0.4 mm 3 m/s 755 mmHg 96%
    04:00 -2°C° 0.4 mm 3 m/s 755 mmHg 96%
    05:00 -2°C° 0.1 mm 3 m/s 755 mmHg 95%
    06:00 -2°C° 0.1 mm 3 m/s 755 mmHg 95%
    07:00 -2°C° 0.1 mm 3 m/s 756 mmHg 95%
    08:00 -2°C° 0 mm 3 m/s 756 mmHg 94%
    09:00 -2°C° 0 mm 3 m/s 757 mmHg 93%
    10:00 -1°C° 0 mm 3 m/s 757 mmHg 92%
    11:00 -1°C° 0 mm 3 m/s 757 mmHg 91%
    12:00 -1°C° 0 mm 3 m/s 757 mmHg 90%
    13:00 -1°C° 0 mm 3 m/s 758 mmHg 89%
    14:00 -1°C° 0 mm 3 m/s 758 mmHg 89%
    15:00 -2°C° 0 mm 2 m/s 758 mmHg 89%
    16:00 -2°C° 0 mm 2 m/s 758 mmHg 88%
    17:00 -3°C° 0 mm 2 m/s 759 mmHg 87%
    18:00 -4°C° 0 mm 2 m/s 759 mmHg 85%
    19:00 -5°C° 0 mm 2 m/s 760 mmHg 84%
    20:00 -6°C° 0 mm 3 m/s 760 mmHg 83%
    21:00 -6°C° 0 mm 3 m/s 761 mmHg 82%
    22:00 -7°C° 0 mm 3 m/s 762 mmHg 81%
    23:00 -7°C° 0 mm 3 m/s 762 mmHg 82%

    21 Ianuarie, Luni

    Timp Temperatura Precipitaţii Vânt Presiune Umiditate
    00:00 -7°C° 0 mm 3 m/s 762 mmHg 83%
    01:00 -7°C° 0 mm 3 m/s 763 mmHg 84%
    02:00 -7°C° 0 mm 3 m/s 763 mmHg 85%
    03:00 -7°C° 0 mm 3 m/s 763 mmHg 86%
    04:00 -7°C° 0 mm 3 m/s 763 mmHg 87%
    05:00 -8°C° 0 mm 3 m/s 764 mmHg 88%
    06:00 -8°C° 0 mm 3 m/s 764 mmHg 89%
    07:00 -8°C° 0 mm 3 m/s 765 mmHg 89%
    08:00 -8°C° 0 mm 4 m/s 765 mmHg 86%
    09:00 -7°C° 0 mm 4 m/s 765 mmHg 84%
    10:00 -6°C° 0 mm 5 m/s 766 mmHg 81%
    11:00 -5°C° 0 mm 5 m/s 766 mmHg 79%
    12:00 -4°C° 0 mm 5 m/s 765 mmHg 78%
    13:00 -4°C° 0 mm 5 m/s 765 mmHg 76%
    14:00 -3°C° 0 mm 4 m/s 765 mmHg 79%
    15:00 -4°C° 0 mm 4 m/s 765 mmHg 83%
    16:00 -5°C° 0 mm 3 m/s 764 mmHg 86%
    17:00 -5°C° 0 mm 3 m/s 764 mmHg 88%
    18:00 -6°C° 0 mm 3 m/s 764 mmHg 89%
    19:00 -7°C° 0 mm 3 m/s 764 mmHg 90%
    20:00 -7°C° 0 mm 3 m/s 764 mmHg 90%
    21:00 -6°C° 0 mm 2 m/s 763 mmHg 90%
    22:00 -6°C° 0 mm 2 m/s 763 mmHg 90%
    23:00 -6°C° 0 mm 2 m/s 763 mmHg 90%
    Arată mai mult